www.pogodaiklimat.ru

Погода и климат >> Архив погоды >> Индонезия >> Рутенг


ПОГОДА в Рутенге

  • Прогноз погоды в Рутенге
  • Монитор погоды в Рутенге

АРХИВ ПОГОДЫ в Рутенге

Время (UTC), дата Ветер
(напр.,м/с)
 
Видим.   Явления Облачность Т
(С)
Тd
(С)
f
(%)
Тe
(С)
Тes
(С)
Комфортность P
(гПа)
Po
(гПа)
Тmin
(С)
Tmax
(С)
R
(мм)
R24
(мм)
S
(см)
12 12.07 штиль 0 8000 м 4/3 450 м
[Cu hum Ci fib]
+17.6 +15.9 90 +18 +18 1012.7 889.9 +25.2
00 13.07 штиль 0 16 км 1/1 450 м
[Cu hum Ci fib]
+15.4 +12.5 83 +15 +20 1013.2 890.3 +11.8
03 13.07 СВ 3 16 км 1/1 450 м
[Cu hum Ci fib]
+22.2 +13.2 57 +25 +38 комфорт 1013.0 890.1
06 13.07 ЮЗ 4 16 км 8/6 400 м
[Cu med, cong As op Ci fib]
+22.0 +14.8 64 +25 +28 комфорт 1010.7 887.8
09 13.07 С 3 10 км 9/6 400 м
[Cu med, cong As op Ci fib]
+20.0 +16.6 81 +23 +23 комфорт 1011.0 888.2
12 13.07 штиль 0 8000 м 6/5 420 м
[Cu med, cong As op Ci fib]
+17.0 +15.7 92 +17 +17 1012.4 889.6 +24.4
00 14.07 Ю 1 14 км 5/5 450 м
[Cu med, cong Ci fib]
+15.6 +12.7 83 +16 +18 1012.5 889.7 +11.6
03 14.07 С 3 16 км 4/4 480 м
[Cu hum Ci fib]
+22.6 +16.2 67 +27 +35 душно 1012.2 889.4
06 14.07 С 3 14 км 8/6 400 м
[Cu med, cong As op Ci fib]
+22.8 +16.1 66 +27 +31 душно 1010.9 888.0
09 14.07 штиль 0 8000 м 10/8 400 м
[Cu med, cong As op Ci fib]
+19.0 +16.7 87 +20 +20 1010.6 887.8
12 14.07 Ю 1 8000 м 8/6 400 м
[Cu med, cong As op Ci fib]
+16.8 +16.1 96 +18 +18 1011.8 888.9 +23.6
00 15.07 СВ 3 16 км 1/1 480 м
[Cu hum Ci fib]
+19.6 +12.4 63 +21 +25 комфорт 1011.7 888.9 +12.2
03 15.07 С 3 14 км 8/6 400 м
[Cu med, cong As op Ci fib]
+22.8 +15.4 63 +27 +31 душно 1011.5 888.7
06 15.07 З 4 14 км 8/6 400 м
[Cu med, cong As op Ci fib]
+22.6 +17.7 74 +28 +30 душно 1009.9 887.0
09 15.07 ЮЗ 2 10 км 9/6 400 м
[Cu med, cong As op Ci fib]
+19.0 +17.0 88 +21 +21 комфорт 1009.8 887.0
12 15.07 штиль 0 8000 м 10/8 400 м
[Cu med, cong As op Ci fib]
+17.2 +16.2 94 +17 +17 1010.9 888.1 +23.2
00 16.07 штиль 0 16 км 1/1 480 м
[Cu hum Ci fib]
+17.2 +13.5 79 +17 +22 1012.0 889.2 +12.0
03 16.07 СВ 3 16 км 1/1 480 м
[Cu hum Ci fib]
+23.2 +17.7 71 +29 +41 душно 1011.4 888.6
06 16.07 С 4 14 км 6/6 400 м
[Cu med, cong Ci fib]
+23.6 +18.8 74 +28 +31 душно 1010.3 887.4
09 16.07 С 2 12 км 9/8 360 м
[Cu med, cong As op Ci fib]
+20.8 +18.5 87 +26 +26 душно 1010.2 887.4
12 16.07 З 2 8000 м 9/8 400 м
[Cu med, cong As op Ci fib]
+18.2 +17.5 96 +19 +19 1011.0 888.2 +25.0
00 17.07 Ю 3 16 км 1/1 480 м
[Cu hum Ac trans Ci fib]
+20.6 +16.6 78 +24 +27 комфорт 1011.2 888.3 +12.2
03 17.07 СВ 3 16 км 3/3 480 м
[Cu hum Ci fib]
+23.8 +19.3 76 +29 +39 душно 1010.6 887.8
06 17.07 Ю 2 16 км 10/8 400 м
[Cu med, cong As op Ci fib]
+23.2 +19.1 78 +30 +31 очень
душно
1009.2 886.3
09 17.07 Ю 2 10 км 10/8 400 м
[Cu med, cong Ac As Ci fib]
+22.0 +19.8 87 +28 +28 душно 1009.1 886.2
12 17.07 штиль 0 8000 м 9/6 360 м
[Cu med, cong As op Ci fib]
+19.4 +18.7 96 +22 +22 комфорт 1010.6 887.8 +24.0
00 18.07 ЮЗ 1 16 км 1/1 480 м
[Cu hum Ci fib]
+18.8 +15.7 82 +21 +25 комфорт 1011.3 888.5 +14.6
06 18.07 ЮЗ 2 12 км 8/6 400 м
[Cu med, cong Ci fib]
+24.6 +17.8 66 +29 +34 душно 1009.3 886.4
09 18.07 С 3 10 км 9/6 400 м
[Cu med, cong As op Ci fib]
+21.4 +19.4 88 +26 +26 душно 1008.9 886.0
12 18.07 СВ 3 8000 м 4/3 450 м
[Cu hum Ac trans Ci fib]
+19.0 +16.0 83 +21 +21 комфорт 1010.3 887.4 +26.0
00 19.07 СВ 3 8000 м 9/8 400 м
[Cu med, cong As op Ci fib]
+19.6 +16.9 84 +22 +23 комфорт 1011.1 888.2 +9.2
03 19.07 СВ 3 10 км 9/8 400 м
[Cu med, cong Ac As Ci fib]
+22.6 +17.7 74 +28 +30 душно 1011.1 888.3
06 19.07 В 4 10 км 9/8 400 м
[Cu med, cong Ac As Ci fib]
+24.0 +17.9 69 +28 +29 душно 1009.7 886.9
09 19.07 С 3 16 км 8/6 400 м
[Cu med, cong As op Ci fib]
+21.6 +18.7 84 +26 +27 душно 1009.3 886.5

 

Местоположение метеостанции Рутенг (Индонезия): широта -8.63 долгота 120.45 высота над уровнем моря 1170 м.

В архиве по умолчанию представлена погода в Рутенге за последнюю неделю. Архивные данные за месяц целиком и за предыдущие месяцы, начиная с января 2011 года, Вы можете получить, выбрав интересующий диапазон дат из раскрывающегося списка и нажав кнопку "Ввод!".


*Определитесь, кто Вы:
робот инопланетянин человек

Внимание! Время в таблицах - всемирное. Для получения местного времени необходимо прибавить поправку, которая равна 8 ч.

Смотрите также архив погоды в соседних городах и на ближайших метеорологических станциях:

Погода в Аэропорту Умбу Механг Кунда (Индонезия) (116 км)
Погода в Биме (Индонезия) (193 км)
Погода в Маумере (Индонезия) (198 км)
Погода в Сабу (Индонезия) (257 км)
Погода в Ларантуке (Индонезия) (280 км)
Погода в Сумбава-Бесаре (Индонезия) (335 км)
Погода на Роти (Индонезия) (370 км)
Погода в Купанге (Индонезия) (391 км)
Погода в Аэропорту Султана Хасануддин (Индонезия) (408 км)
Погода в Уджангпанданге (Индонезия) (408 км)

Пояснения к столбцам:

Ветер - указаны скорость ветра в м/с - средняя за 10 мин, порывы в срок и между сроками (в фигурных скобках) и направление, откуда дует ветер: С - северный, СВ - северо-восточный, В - восточный, ЮВ - юго-восточный, Ю - южный, ЮЗ - юго-западный, З - западный, СЗ - северо-западный.
Видимость - горизонтальная дальность видимости в метрах или километрах. При видимости от 1 до 10 км при отсутствии осадков обычно наблюдается дымка, при ухудшении видимости до 1 км и менее - туман. В сухую погоду видимость может ухудшаться дымом, пылью или мглою.
Явления - указаны атмосферные явления, наблюдавшиеся в срок или в последний час перед сроком; фигурными скобками обозначены явления, наблюдавшиеся между сроками (за 1-3 часа до срока); квадратными скобками обозначены град или гололедные отложения с указанием их диаметра в мм.
Облачность - указаны через наклонную черту общая и нижняя облачность в баллах и высота нижней границы облаков в метрах; квадратными скобками обозначены формы облаков: Ci - перистые, Cs - перисто-слоистые, Cc - перисто-кучевые, Ac - высококучевые, As - высокослоистые, Sc - слоисто-кучевые, Ns - слоисто-дождевые, Cu - кучевые, Cb - кучево-дождевые. Подробнее классификацию облаков см. в Атласе облаков (PDF).
T - Температура воздуха - температура, измеренная на высоте 2 м над землей.
Td - Температура точки росы - температура, при понижении до которой содержащийся в воздухе водяной пар достигнет насыщения.
f - Относительная влажность воздуха - влажноcть воздуха, измеренная на высоте 2 м над землей.
Te - Эффективная температура - температура, которую ощущает одетый по сезону человек в тени. Характеристика душности погоды. При расчете учитывается влияние влажности воздуха и скорости ветра на теплоощущения человека.
Tes - Эффективная температура на солнце - температура, которую ощущает человек, с поправкой на солнечный нагрев. Характеристика знойности погоды. Зависит от высоты солнца над горизонтом, облачности и скорости ветра. Ночью, в пасмурную погоду, а также при ветре 12 м/с и более поправка равна нулю.
P - Атмосферное давление - приведенное к уровню моря атмосферное давление.
Po - Атмосферное давление - измеренное на уровне метеостанции атмосферное давление.
Tmin - Минимальная температура - минимум температуры воздуха на высоте 2 м над землей.
Tmax - Максимальная температура - максимум температуры воздуха на высоте 2 м над землей.
R - Количество осадков - Количество выпавших осадков за период времени, мм. При наведении курсора мыши на число - период времени, за который выпало указанное количество осадков.
R24 - Количество осадков - Количество выпавших осадков за 24 часа, мм.
S - Снежный покров - Высота снежного покрова, см. При наведении курсора мыши на число - состояние снежного покрова и степень покрытия местности в баллах.